[[{"header":{"parameterUnit":"m.s-1","parameterCategory":1,"la1":30.2991,"la2":30.254,"lo1":-89.0895,"lo2":-89.0444,"dy":0.0017,"dx":0.0017,"nx":28,"ny":28,"refTime":"2024-07-23T03:00:00:Z","depth":0,"parameterNumber":2,"parameterNumberName":"U-component_of_WINDS"},"data":[0,0,0,0,0,0,0,0,0,0,0,0,0,0,0,0,0,0,0,0,0,0,0,0,0,0,0,0,0,0,0,0,0,0,0,0,0,0,0,0,0,0,0,0,0,0,0,0,0,0,0,0,0,0,0,0,0,0,0.6864,0.6864,0,0.6855,0.6855,0.6854,0.6838,0.6837,0.6837,0.6837,0.6827,0.6827,0.6827,0,0,0,0,0,0,0,0,0,0,0,0,0,0.6863,0.6863,0.6864,0.6864,0.6863,0.6855,0.6855,0.6854,0.6838,0.6837,0.6837,0.6837,0.6827,0.6827,0.6827,0,0,0,0,0,0,0,0,0,0,0,0,0,0.686,0.6863,0.6864,0.6854,0.6853,0.6855,0.6855,0.6854,0.6838,0.6837,0.6837,0.6836,0.6827,0.6827,0.6827,0.6837,0,0,0.6827,0.6827,0,0,0,0,0,0,0,0,0.686,0.686,0.6856,0.6855,0.6854,0.6847,0.6851,0.6848,0.6838,0.6844,0.6837,0.6836,0.6834,0.6833,0.6832,0.6836,0.6836,0.6827,0.6827,0.6827,0.6827,0,0,0,0,0,0,0,0.686,0.686,0.686,0.6856,0.6854,0.6849,0.6848,0.685,0.6841,0.6843,0.6842,0.6841,0.6833,0.6832,0.6832,0.6835,0.6827,0.6827,0.6827,0.6827,0.6844,0.6844,0,0,0,0,0,0,0.6862,0.686,0.686,0.686,0.6856,0.685,0.6848,0.685,0.6841,0.684,0.6842,0.684,0.6833,0.6832,0.6832,0.6841,0.6827,0.6827,0.6827,0.6843,0.6844,0.6844,0,0,0,0,0,0,0.6862,0.6862,0.6861,0.686,0.6859,0.685,0.6851,0.685,0.6849,0.684,0.6838,0.6843,0.6832,0.6832,0.6835,0.684,0.6827,0.6827,0.6843,0.6843,0.6844,0.686,0,0,0,0,0,0,0.6862,0.6863,0.6867,0.686,0.6859,0.6865,0.6852,0.685,0.6849,0.6848,0.6841,0.6839,0.6832,0.6835,0.6835,0.684,0.6827,0.6842,0.6843,0.6844,0.6859,0.6861,0.6863,0,0,0,0,0,0.6862,0.6872,0.6867,0.6868,0.6865,0.6865,0.6865,0.6857,0.685,0.6853,0.6847,0.6839,0.684,0.6835,0.6835,0.684,0.6842,0.6843,0.6844,0.6858,0.6861,0.6863,0,0,0,0,0,0,0.6881,0.6871,0.6866,0.6874,0.6871,0.6863,0.6867,0.686,0.6858,0.6857,0.6846,0.6844,0.6849,0.6845,0.684,0.6848,0.6839,0.684,0.685,0.6853,0.6855,0.6855,0.6827,0,0,0,0,0,0.6886,0.6888,0.6879,0.6887,0.6886,0.6877,0.6877,0.687,0.6866,0.6865,0.6859,0.6855,0.6853,0.6853,0.6852,0.6858,0.6856,0.6862,0.6864,0.6865,0.6866,0.6867,0.6869,0.6847,0.6847,0.6847,0,0,0.6896,0.6891,0.6893,0.6891,0.6887,0.6888,0.6876,0.6878,0.6878,0.6865,0.6867,0.6863,0.6857,0.6861,0.6863,0.6858,0.6871,0.6867,0.6868,0.6868,0.6868,0.687,0.6872,0.6848,0.6848,0.6848,0,0,0.6915,0.6912,0.6917,0.6914,0.6909,0.6902,0.6903,0.6896,0.6892,0.6895,0.6884,0.6883,0.6882,0.6878,0.6876,0.689,0.6882,0.689,0.6901,0.6901,0.6903,0.6905,0.6908,0.691,0.6891,0.6891,0.6891,0,0.6928,0.693,0.6921,0.6923,0.6921,0.6909,0.6913,0.691,0.6904,0.6903,0.6898,0.6894,0.689,0.6892,0.6895,0.6895,0.6894,0.6891,0.6904,0.6905,0.6906,0.6909,0.6911,0.6892,0.6892,0.6892,0.6892,0,0.6946,0.6947,0.6951,0.6946,0.6944,0.6948,0.6938,0.6937,0.693,0.6924,0.6925,0.6919,0.6915,0.6915,0.6909,0.6916,0.6913,0.6906,0.6897,0.6909,0.6912,0.6913,0.6893,0.6893,0.6893,0.6892,0,0,0.6977,0.6965,0.6966,0.6962,0.6955,0.6955,0.6956,0.6953,0.6951,0.6948,0.6948,0.6946,0.6939,0.6936,0.6929,0.693,0.6939,0.6923,0.6922,0.6925,0.6944,0.6948,0.695,0.6934,0.6934,0.6934,0.6944,0,0.6993,0.6996,0.6986,0.6991,0.699,0.6977,0.6978,0.6973,0.6967,0.6965,0.6957,0.6956,0.6947,0.6945,0.6946,0.6938,0.6943,0.6937,0.6932,0.6932,0.6933,0.6952,0.6957,0.6966,0.6945,0.6945,0.6945,0,0.7013,0.7009,0.7013,0.7003,0.7002,0.7003,0.6998,0.6996,0.6989,0.6984,0.698,0.6972,0.6971,0.6962,0.696,0.6957,0.6954,0.695,0.695,0.6948,0.6939,0.695,0.6969,0.697,0.6947,0.6947,0.6947,0,0.7032,0.7028,0.703,0.7027,0.7016,0.7017,0.7012,0.7004,0.7002,0.6996,0.6994,0.6989,0.6986,0.6982,0.6971,0.6966,0.697,0.6961,0.6964,0.6965,0.6965,0.6965,0.6984,0.6965,0.6965,0.6965,0.6965,0,0.7051,0.7053,0.7038,0.7039,0.7041,0.703,0.7031,0.7025,0.7018,0.7017,0.7005,0.7004,0.6991,0.6987,0.6979,0.6977,0.6976,0.6971,0.6969,0.6972,0.6972,0.697,0.6968,0.6966,0.6966,0.6965,0.6965,0,0.7073,0.7064,0.7064,0.7052,0.705,0.7051,0.7041,0.704,0.7033,0.7031,0.703,0.7018,0.7013,0.7002,0.6995,0.6989,0.6989,0.6985,0.6991,0.6989,0.6993,0.6992,0.701,0.7011,0.6993,0.6993,0.6993,0,0.7085,0.7086,0.7075,0.7073,0.7068,0.7066,0.7063,0.7051,0.7048,0.7039,0.7039,0.7033,0.7028,0.7021,0.7011,0.7004,0.7,0.7006,0.6999,0.7001,0.6998,0.6998,0.6997,0.7008,0.7008,0.7008,0.7008,0,0.7106,0.7101,0.7097,0.7091,0.7088,0.7082,0.7076,0.7075,0.7062,0.7059,0.7054,0.7049,0.7041,0.7035,0.7027,0.7021,0.7012,0.7011,0.7011,0.7013,0.7016,0.7013,0.6994,0.701,0.701,0.701,0.701,0.701,0.7123,0.7122,0.7114,0.7109,0.7103,0.7098,0.7096,0.7088,0.7083,0.7075,0.7069,0.7064,0.7054,0.7042,0.7037,0.7032,0.7028,0.7028,0.7028,0.7028,0.7029,0.7018,0.703,0.703,0.703,0.703,0.703,0,0.7142,0.7135,0.7131,0.7123,0.7119,0.7111,0.7103,0.71,0.7096,0.7088,0.7083,0.7076,0.7069,0.7058,0.7051,0.7049,0.7044,0.7047,0.7047,0.7045,0.7034,0.7034,0.7051,0.7051,0.7051,0.7051,0.7051,0.7051,0.7151,0.715,0.7143,0.7138,0.7132,0.7127,0.7123,0.7117,0.711,0.7103,0.7097,0.709,0.7081,0.7072,0.7065,0.7062,0.7059,0.7063,0.7058,0.7048,0.7046,0.7044,0.7044,0.7062,0.7062,0.7069,0.7069,0.7069]},{"header":{"parameterUnit":"m.s-1","parameterCategory":1,"la1":30.2991,"la2":30.254,"lo1":-89.0895,"lo2":-89.0444,"dy":0.0017,"dx":0.0017,"nx":28,"ny":28,"refTime":"2024-07-23T03:00:00:Z","depth":0,"parameterNumber":3,"parameterNumberName":"V-component_of_WINDS"},"data":[0,0,0,0,0,0,0,0,0,0,0,0,0,0,0,0,0,0,0,0,0,0,0,0,0,0,0,0,0,0,0,0,0,0,0,0,0,0,0,0,0,0,0,0,0,0,0,0,0,0,0,0,0,0,0,0,0,0,3.9862,3.9862,0,3.9899,3.9899,3.99,3.984,3.9838,3.9836,3.9834,3.987,3.9873,3.9876,0,0,0,0,0,0,0,0,0,0,0,0,0,3.9735,3.9737,3.9862,3.9862,3.9863,3.9899,3.9899,3.99,3.984,3.9838,3.9835,3.9833,3.9869,3.9873,3.9876,0,0,0,0,0,0,0,0,0,0,0,0,0,3.9783,3.9738,3.9862,3.9837,3.9835,3.9899,3.9899,3.99,3.9841,3.9838,3.9835,3.9832,3.9868,3.9872,3.9877,3.9965,0,0,3.989,3.9892,0,0,0,0,0,0,0,0,3.978,3.9787,3.984,3.9839,3.9837,3.9862,3.9868,3.9922,3.9842,3.9839,3.9834,3.983,3.987,3.9874,3.9888,3.9967,3.9968,3.989,3.9893,3.9895,3.9896,0,0,0,0,0,0,0,3.9777,3.9786,3.9876,3.9841,3.9839,3.9823,3.9827,3.9878,3.9871,3.9839,3.9835,3.984,3.9868,3.9884,3.9888,3.9969,3.989,3.9894,3.9897,3.9898,4.0117,4.0121,0,0,0,0,0,0,3.9777,3.9783,3.9875,3.9877,3.9801,3.9828,3.9832,3.9857,3.987,3.9869,3.9842,3.9837,3.9878,3.9883,3.9889,3.999,3.9895,3.9899,3.9901,4.0114,4.0118,4.0122,0,0,0,0,0,0,3.9774,3.9786,3.9874,3.9829,3.9839,3.9833,3.9862,3.9859,3.9874,3.9873,3.9871,3.9859,3.9875,3.9883,3.9946,3.999,3.9901,3.9905,4.011,4.0115,4.012,4.0195,0,0,0,0,0,0,3.9771,3.9785,3.982,3.983,3.9842,3.9931,3.9865,3.9862,3.9882,3.9875,3.9889,3.9888,3.9874,3.9939,3.995,3.9995,3.9908,4.0106,4.0113,4.0118,4.0188,4.0201,4.0213,0,0,0,0,0,3.9767,3.984,3.9822,3.9833,3.9885,3.9934,3.994,3.9923,3.9886,3.992,3.9918,3.9887,3.9984,3.9946,3.9958,4.0005,4.0103,4.0111,4.0118,4.0182,4.0199,4.0212,0,0,0,0,0,0,3.9835,3.9841,3.9821,3.99,3.9917,3.9924,3.9966,3.9941,3.9969,3.9961,3.9938,3.9941,4.0008,4.0013,3.997,4.0088,4.0037,4.0047,4.0083,4.0098,4.011,4.0107,3.9912,0,0,0,0,0,3.986,3.99,3.9902,3.9972,3.9981,3.9972,3.9993,3.9978,3.9994,4.0001,4.0004,4.002,4.0054,4.0077,4.0108,4.0189,4.0189,4.0226,4.0239,4.0249,4.0257,4.0297,4.0312,4.0146,4.0146,4.0145,0,0,3.991,3.9918,3.9945,3.9985,3.9997,4.0037,3.9979,4.0025,4.0053,4.0007,4.0066,4.0069,4.0085,4.0157,4.0188,4.0163,4.0303,4.0258,4.0266,4.0269,4.0306,4.0321,4.0335,4.015,4.015,4.0149,0,0,4.0022,4.0034,4.0091,4.0103,4.012,4.0113,4.0127,4.0137,4.0137,4.0196,4.0161,4.0195,4.0254,4.0266,4.028,4.0393,4.0364,4.0404,4.0468,4.0507,4.052,4.0531,4.0569,4.0583,4.0413,4.0413,4.0413,0,4.0083,4.0143,4.0124,4.0171,4.0188,4.0148,4.0204,4.0216,4.0243,4.0255,4.0227,4.0298,4.0306,4.0378,4.0405,4.0419,4.0432,4.0402,4.052,4.0531,4.0541,4.0577,4.0591,4.0417,4.0417,4.0416,4.0416,0,4.0214,4.0256,4.03,4.0326,4.0348,4.04,4.0387,4.0412,4.0394,4.039,4.0448,4.0456,4.0487,4.0503,4.0487,4.0572,4.0555,4.0524,4.0472,4.0562,4.0595,4.0608,4.0424,4.0422,4.0421,4.042,0,0,4.0372,4.0384,4.04,4.0409,4.0424,4.0456,4.0504,4.0534,4.0554,4.0573,4.0612,4.0662,4.0632,4.0647,4.0632,4.0667,4.0752,4.063,4.063,4.065,4.0841,4.0863,4.0879,4.0733,4.0736,4.0738,4.0839,0,4.0481,4.0564,4.0547,4.0628,4.0665,4.0626,4.0667,4.068,4.0677,4.0706,4.0702,4.0737,4.0696,4.0705,4.0738,4.0734,4.0789,4.0727,4.0766,4.0768,4.0761,4.0897,4.0921,4.1016,4.0852,4.0854,4.0856,0,4.0619,4.0642,4.0727,4.0732,4.0747,4.0785,4.0809,4.0838,4.0851,4.0846,4.0862,4.0839,4.0885,4.0834,4.0895,4.0853,4.0868,4.0869,4.0872,4.0873,4.0816,4.0899,4.1046,4.1059,4.0876,4.0875,4.0873,0,4.0721,4.0774,4.083,4.084,4.0849,4.0875,4.088,4.089,4.0907,4.0928,4.0939,4.0965,4.0979,4.0999,4.0983,4.0948,4.1046,4.0994,4.1041,4.1041,4.1062,4.106,4.1211,4.1076,4.1076,4.1076,4.1075,0,4.0843,4.0896,4.0875,4.091,4.0967,4.0945,4.1002,4.1002,4.101,4.1042,4.1011,4.1042,4.1021,4.1049,4.1037,4.1088,4.1095,4.1091,4.1086,4.1092,4.1092,4.11,4.1092,4.1079,4.1079,4.1078,4.1077,0,4.0967,4.0955,4.1013,4.1016,4.1018,4.1059,4.1061,4.1092,4.1085,4.1127,4.1135,4.1125,4.1157,4.1143,4.1178,4.1169,4.1233,4.1222,4.1229,4.1225,4.1271,4.1266,4.143,4.1449,4.1305,4.1306,4.1307,0,4.1044,4.1083,4.1089,4.1108,4.1115,4.1147,4.1164,4.1144,4.1163,4.1179,4.1207,4.1236,4.1258,4.1311,4.1306,4.1331,4.1318,4.1373,4.1321,4.1325,4.1315,4.1312,4.1314,4.1383,4.1385,4.1386,4.1387,0,4.1182,4.1173,4.12,4.1223,4.1244,4.1262,4.1277,4.1294,4.1274,4.1297,4.1329,4.1346,4.1379,4.1407,4.1429,4.1433,4.1406,4.1404,4.1415,4.142,4.1422,4.1418,4.1254,4.14,4.1399,4.1398,4.1397,4.1396,4.1283,4.1314,4.1322,4.1351,4.136,4.1374,4.1402,4.1398,4.1424,4.1449,4.1436,4.1472,4.1481,4.1507,4.1514,4.1541,4.1519,4.1536,4.154,4.1544,4.1549,4.1419,4.1545,4.1545,4.1544,4.1544,4.1544,0,4.1416,4.1419,4.1446,4.1466,4.1489,4.1462,4.1476,4.1496,4.1528,4.1538,4.156,4.1595,4.1621,4.1618,4.1642,4.1664,4.1652,4.167,4.1667,4.1668,4.1569,4.1555,4.1679,4.1679,4.1679,4.1679,4.1679,4.1679,4.1488,4.1538,4.153,4.1584,4.1586,4.1621,4.1631,4.1642,4.165,4.169,4.1711,4.1709,4.1713,4.1736,4.1759,4.1757,4.1766,4.1788,4.1782,4.1689,4.1675,4.1662,4.1649,4.1791,4.1791,4.1878,4.1879,4.188]}]]